Content
SEND FEEDBACK

Daily
Averages
Monthly
Summary
United States of America

ROTHSAY, MINNESOTA


Home > North America > United States > Minnesota
Elevation: 1223 feet     Latitude: 46 28N     Longitude: 096 16W

WEATHER
 
SELECT A DAY
Number of Records: 458,824;   Date Range: 1/1/95 - 8/30/14
 
SHARE

PRINT THIS DATA

[ ← Previous Day ]
WEATHER ALMANAC - JANUARY 31, 2013
[ Next Day → ]
[ °C ]   °F
Weather ElementAverageHighLow
Temperature-11.1 °F-5.8 °F (12:33 am)-22 °F (11:53 pm)
Dewpoint-17.4 °F-9.4 °F (12:33 am)-27.4 °F (11:33 pm)
Humidity74 %84 % (12:33 am)65 % (3:34 pm)
Barometer29.76 in30.30 in (9:13 pm) (7:00 pm)
Wind Speed16.8 mph25.3 mph (12:33 pm)
Wind Gust31.1 mph (7:33 am)
Weather ElementAverage
Visibility5.8 mi
Wind DirectionNW (318.7 °)

Weather ElementTotal
Precipitation---
Heating Degree Days78.9 (Base 65)
Averaged from 71 records on January 31, 2013
WEATHER CONDITIONS BREAKOUT
WIND DIRECTION BREAKOUT
WEATHER BY HOUR - JANUARY 31, 2013
[ °C ]   °F
Local TimeTemperatureDewpointHumidityBarometerVisibilityWind DirectionWind SpeedGust SpeedPrecipitationEventsConditions
12:33 AM-5.8 °F-9.4 °F84 %29.89 in3.0 miNNW (330°)20.7 mph27.6 mphHaze
12:53 AM-5.8 °F-11.2 °F77 %29.89 in3.0 miNNW (330°)20.7 mph28.8 mphHaze
1:13 AM-5.8 °F-11.2 °F77 %29.89 in2.5 miNNW (330°)18.4 mph28.8 mphHaze
1:33 AM-7.6 °F-11.2 °F84 %29.90 in3.0 miNNW (330°)20.7 mph26.5 mphHaze
1:53 AM-7.6 °F-13.0 °F77 %29.90 in4.0 miNNW (330°)17.3 mph26.5 mphHaze
2:13 AM-7.6 °F-13.0 °F77 %29.91 in4.0 miNNW (330°)18.4 mphHaze
2:34 AM-9.4 °F-14.8 °F77 %29.92 in4.0 miNNW (330°)18.4 mph26.5 mphHaze
2:53 AM-9.4 °F-14.8 °F77 %29.93 in5.0 miNW (320°)16.1 mphHaze
3:13 AM-9.4 °F-14.8 °F77 %29.93 in4.0 miNW (310°)18.4 mphHaze
3:34 AM-9.4 °F-16.6 °F71 %29.94 in3.0 miNW (320°)21.9 mphHaze
3:53 AM-9.4 °F-16.6 °F71 %29.95 in3.0 miNW (320°)20.7 mphHaze
4:13 AM-9.4 °F-16.6 °F71 %29.96 in4.0 miNW (320°)19.6 mph24.2 mphHaze
4:34 AM-9.4 °F-16.6 °F71 %3.0 miNW (320°)20.7 mph26.5 mphHaze
4:52 AM-9.4 °F-14.8 °F77 %29.97 in3.0 miNW (320°)20.7 mph26.5 mphHaze
5:13 AM-9.4 °F-14.8 °F77 %29.97 in2.5 miNW (320°)21.9 mph27.6 mphHaze
5:33 AM-9.4 °F-14.8 °F77 %29.98 in2.5 miNW (320°)24.2 mphHaze
5:53 AM-9.4 °F-16.6 °F71 %30.00 in1.8 miNW (320°)21.9 mphHaze
6:13 AM-11.2 °F-16.6 °F77 %30.00 in2.0 miNW (320°)19.6 mph27.6 mphHaze
6:33 AM-9.4 °F-16.6 °F71 %30.01 in2.0 miNW (320°)23.0 mphHaze
6:53 AM-9.4 °F-16.6 °F71 %30.03 in1.8 miNNW (330°)21.9 mphHaze
7:14 AM-9.4 °F-16.6 °F71 %30.04 in1.8 miNW (320°)19.6 mph26.5 mphHaze
7:33 AM-9.4 °F-14.8 °F77 %30.05 in1.2 miNNW (330°)24.2 mph31.1 mphSnowLight Snow
7:53 AM-9.4 °F-16.6 °F71 %30.06 in1.2 miNW (320°)21.9 mph27.6 mphSnowLight Snow
8:14 AM-9.4 °F-14.8 °F77 %30.07 inNW (320°)19.6 mph26.5 mphOvercast
8:33 AM-9.4 °F-16.6 °F71 %30.09 inNNW (330°)18.4 mphOvercast
8:53 AM-9.4 °F-14.8 °F77 %30.10 inNNW (330°)17.3 mph24.2 mphOvercast
9:18 AM-9.4 °F-16.6 °F71 %30.12 inNNW (330°)23.0 mph29.9 mphOvercast
9:33 AM-9.4 °F-14.8 °F77 %30.13 inNNW (330°)23.0 mph28.8 mphOvercast
9:53 AM-9.4 °F-14.8 °F77 %30.14 inNNW (330°)18.4 mph28.8 mphOvercast
10:13 AM-9.4 °F-14.8 °F77 %30.15 inNNW (330°)19.6 mph26.5 mphOvercast
10:33 AM-9.4 °F-14.8 °F77 %30.15 inNNW (330°)21.9 mph27.6 mphOvercast
10:54 AM-9.4 °F-14.8 °F77 %30.17 inNW (320°)23.0 mph28.8 mphMostly Cloudy
11:13 AM-9.4 °F-16.6 °F71 %30.18 inNNW (330°)19.6 mph26.5 mphOvercast
11:33 AM-9.4 °F-16.6 °F71 %30.18 inNNW (330°)24.2 mph31.1 mphMostly Cloudy
11:48 AM-9.4 °F-16.6 °F71 %30.18 inNNW (330°)19.6 mph28.8 mphScattered Clouds
12:13 PM-9.4 °F-16.6 °F71 %30.19 inNNW (330°)23.0 mph28.8 mphClear
12:33 PM-9.4 °F-16.6 °F71 %30.20 inNNW (330°)25.3 mph28.8 mphClear
12:53 PM-9.4 °F-16.6 °F71 %30.20 inNNW (330°)20.7 mph29.9 mphClear
1:13 PM-9.4 °F-16.6 °F71 %30.21 inNW (320°)21.9 mph26.5 mphScattered Clouds
1:34 PM-9.4 °F-16.6 °F71 %30.21 inNNW (330°)19.6 mphClear
1:53 PM-7.6 °F-14.8 °F71 %30.21 inNNW (330°)19.6 mph24.2 mphScattered Clouds
2:13 PM-7.6 °F-14.8 °F71 %30.22 inNW (320°)20.7 mph26.5 mphMostly Cloudy
2:34 PM-7.6 °F-14.8 °F71 %30.22 inNW (320°)21.9 mphScattered Clouds
2:53 PM-9.4 °F-16.6 °F71 %30.23 inNW (320°)20.7 mph27.6 mphClear
3:13 PM-7.6 °F-14.8 °F71 %30.23 inNNW (330°)16.1 mphClear
3:34 PM-7.6 °F-16.6 °F65 %30.24 in4.0 miNNW (330°)17.3 mph23.0 mphHaze
3:53 PM-9.4 °F-14.8 °F77 %30.25 in2.0 miNNW (330°)17.3 mphHaze
4:13 PM-9.4 °F-14.8 °F77 %30.25 in1.8 miNNW (330°)18.4 mph21.9 mphHaze
4:33 PM-9.4 °F-14.8 °F77 %30.26 in1.8 miNW (320°)12.7 mphHaze
4:53 PM-9.4 °F-16.6 °F71 %30.26 in10.0 miNW (320°)15.0 mphScattered Clouds
5:13 PM-9.4 °F-16.6 °F71 %30.26 in10.0 miNW (320°)10.4 mphClear
5:33 PM-11.2 °F-16.6 °F77 %30.27 in7.0 miNW (320°)12.7 mphClear
5:53 PM-11.2 °F-16.6 °F77 %30.27 in3.0 miNW (320°)11.5 mphHaze
6:14 PM-11.2 °F-18.4 °F70 %30.27 in7.0 miNW (310°)12.7 mphMostly Cloudy
6:33 PM-13.0 °F-18.4 °F77 %30.27 in10.0 miNW (310°)13.8 mphScattered Clouds
6:53 PM-14.8 °F-20.2 °F77 %30.27 in10.0 miNW (310°)11.5 mphClear
7:14 PM-14.8 °F-20.2 °F77 %30.28 in10.0 miWNW (300°)8.1 mphClear
7:33 PM-16.6 °F-22.0 °F76 %30.28 in10.0 miWNW (290°)5.8 mphClear
7:53 PM-16.6 °F-23.8 °F70 %30.28 in10.0 miWNW (290°)5.8 mphClear
8:14 PM-16.6 °F-23.8 °F70 %30.29 in10.0 miWNW (300°)8.1 mphClear
8:33 PM-16.6 °F-23.8 °F70 %30.29 in10.0 miWNW (290°)10.4 mphClear
8:53 PM-16.6 °F-23.8 °F70 %30.29 in10.0 miWNW (300°)10.4 mphClear
9:13 PM-18.4 °F-23.8 °F76 %30.30 in10.0 miWNW (300°)9.2 mphClear
9:33 PM-18.4 °F-23.8 °F76 %30.30 in10.0 miWNW (300°)9.2 mphClear
9:53 PM-18.4 °F-23.8 °F76 %30.30 in10.0 miWNW (300°)9.2 mphClear
10:13 PM-18.4 °F-25.6 °F70 %30.30 in10.0 miWNW (300°)6.9 mphClear
10:33 PM-20.2 °F-25.6 °F76 %30.30 in10.0 miWNW (290°)5.8 mphClear
10:53 PM-20.2 °F-25.6 °F76 %30.29 in10.0 miWNW (290°)6.9 mphClear
11:13 PM-20.2 °F-25.6 °F76 %30.30 in10.0 miWest (280°)5.8 mphClear
11:33 PM-20.2 °F-27.4 °F69 %30.28 in10.0 miNNW (330°)3.5 mphClear
11:53 PM-22.0 °F-27.4 °F76 %30.28 in10.0 miNW (310°)3.5 mphClear
Hourly data recorded from KFFM, located miles away from Rothsay, Minnesota







STORIES FROM OUR PARTNERS